This is the latest recevied weather packets stored in our database for station/object K1ABC. If no packets are shown the sender has not sent any weather packets the latest 10 day(s).
| Time | Temp. | Humidity | Pressure | Rain* | Wind** | Luminosity | Snow |
|---|---|---|---|---|---|---|---|
| 1777844394 | 12.22° C | 43% | 1005.8 hPa | 0 mm | - | - | - |
| 1777843072 | 11.67° C | 42% | 1005.6 hPa | 0 mm | - | - | - |
| 1777841873 | 11.67° C | 46% | 1005.4 hPa | 0 mm | - | - | - |
| 1777841169 | 11.67° C | 43% | 1005.3 hPa | 0 mm | - | - | - |
| 1777840966 | 11.67° C | 42% | 1005.3 hPa | 0 mm | - | - | - |
| 1777839379 | 13.33° C | 40% | 1005 hPa | 0 mm | - | - | - |
| 1777838564 | 13.33° C | 41% | 1004.8 hPa | 0 mm | - | - | - |
| 1777836495 | 12.22° C | 46% | 1005.2 hPa | 0 mm | - | - | - |
| 1777836301 | 12.22° C | 45% | 1005.1 hPa | 0 mm | - | - | - |
| 1777836101 | 12.78° C | 47% | 1005.1 hPa | 0 mm | - | - | - |
| 1777832389 | 11.11° C | 54% | 1005.3 hPa | 0 mm | - | - | - |
| 1777831812 | 11.67° C | 51% | 1005.2 hPa | 0 mm | - | - | - |
| 1777831616 | 11.67° C | 51% | 1005.3 hPa | 0 mm | - | - | - |
| 1777831418 | 11.67° C | 50% | 1005.2 hPa | 0 mm | - | - | - |
| 1777830837 | 11.67° C | 54% | 1005.3 hPa | 0 mm | - | - | - |
| 1777830635 | 11.11° C | 55% | 1005.2 hPa | 0 mm | - | - | - |
| 1777830066 | 11.11° C | 65% | 1005.2 hPa | 0 mm | - | - | - |
| 1777829253 | 10° C | 67% | 1005.2 hPa | 0 mm | - | - | - |
| 1777826173 | 8.33° C | 73% | 1005.6 hPa | 0 mm | - | - | - |
| 1777824960 | 8.89° C | 77% | 1005.6 hPa | 0 mm | - | - | - |
| 1777824637 | 8.89° C | 74% | 1005.5 hPa | 0 mm | - | - | - |
| 1777823820 | 8.89° C | 76% | 1005.6 hPa | 0 mm | - | - | - |
| 1777823500 | 8.89° C | 77% | 1005.4 hPa | 0 mm | - | - | - |
| 1777823175 | 8.89° C | 78% | 1005.4 hPa | 0 mm | - | - | - |
| 1777822464 | 8.89° C | 80% | 1005.4 hPa | 0 mm | - | - | - |
* Rain latest hour (hover to see other rain measurements)
** Current wind speed in m/s (hover to see current wind gust speed)